Location: Campillo
(40.8621°N, 4.2488°W)
Time: 09:59:34
(UTC+00:00)

Cosmos 1633 Rocket - Pass Details

Date: 22 September 2021
Orbit: 608 x 623 km, 82.5° (Epoch: 15 October)

Event Time Altitude Azimuth Distance (km) Brightness Sun altitude
Rises 02:55:01 0° 8° (N) 2,912 7.1 -34.4°
Reaches altitude 10° 02:57:51 10° 26° (NNE) 2,000 6.3 -34.0°
Maximum altitude 03:01:00 19° 72° (ENE) 1,493 5.6 -33.5°
Enters shadow 03:03:39 12° 113° (ESE) 1,855 5.8 -33.1°
